DW5057 Weather Reports


Display with metric or nautical units.
time (UTC)temp
F
wind
direction
speed
MPH
gust
MPH
rain 1hr
in
rain 24hr
in
rain mn
in
humidity
%
barometer
mb
20260507141528 58 353 1.0 2.0 0.00 0.13 0.10 76 1012.6
20260507140528 57 89 0.0 1.0 0.00 0.13 0.10 78 1012.3
20260507135528 57 346 1.0 2.0 0.00 0.13 0.10 78 1012.8
20260507134528 56 20 1.0 2.0 0.00 0.13 0.10 78 1012.6
20260507133549 56 355 1.0 2.0 0.00 0.13 0.10 77 1012.6
20260507132549 56 356 1.0 2.0 0.00 0.13 0.10 79 1012.4
20260507131529 55 30 1.0 2.0 0.00 0.13 0.10 80 1012.4
20260507130529 55 356 1.0 2.0 0.00 0.13 0.10 80 1012.5
20260507125529 55 27 1.0 2.0 0.00 0.13 0.10 81 1012.5
20260507124530 55 48 1.0 2.0 0.00 0.13 0.10 81 1012.7
20260507123530 55 39 1.0 3.0 0.00 0.13 0.10 80 1012.6
20260507122529 55 40 1.0 2.0 0.00 0.13 0.10 81 1012.4
20260507121551 54 39 1.0 3.0 0.00 0.13 0.10 81 1012.4
20260507120530 54 29 1.0 3.0 0.00 0.13 0.10 81 1012.6
20260507115537 55 20 1.0 2.0 0.00 0.13 0.10 81 1012.5
20260507114518 55 31 1.0 2.0 0.00 0.13 0.10 81 1012.3
20260507113516 55 37 1.0 3.0 0.00 0.13 0.10 80 1012.1
20260507112516 55 29 1.0 5.0 0.00 0.13 0.10 81 1012.0
20260507111517 55 23 1.0 3.0 0.00 0.13 0.10 82 1012.0
20260507110517 54 24 1.0 3.0 0.00 0.13 0.10 84 1012.1
20260507105517 54 31 1.0 3.0 0.00 0.13 0.10 83 1012.2
20260507104517 54 26 1.0 2.0 0.00 0.13 0.10 84 1012.1
20260507103517 54 8 1.0 2.0 0.00 0.13 0.10 84 1011.9
20260507102518 54 227 0.0 3.0 0.00 0.13 0.10 84 1011.7
20260507101517 54 228 0.0 2.0 0.00 0.13 0.10 85 1011.6
20260507100517 54 207 0.0 2.0 0.00 0.13 0.10 85 1011.6
20260507095518 54 78 0.0 4.0 0.00 0.13 0.10 87 1011.3
20260507094518 54 214 0.0 2.0 0.00 0.13 0.10 87 1011.2
20260507093518 54 199 0.0 3.0 0.00 0.13 0.10 88 1010.9
20260507092518 54 132 0.0 3.0 0.00 0.13 0.10 88 1010.6
20260507091539 54 181 1.0 3.0 0.00 0.13 0.10 88 1011.0
20260507090519 54 214 1.0 4.0 0.00 0.13 0.10 89 1010.8
20260507085536 54 230 1.0 2.0 0.00 0.13 0.10 90 1010.7
20260507084519 54 197 1.0 2.0 0.00 0.13 0.10 91 1010.6
20260507083516 55 313 1.0 4.0 0.00 0.13 0.10 92 1010.5
20260507082516 55 306 1.0 3.0 0.00 0.13 0.10 92 1010.8
20260507081516 56 222 1.0 3.0 0.00 0.13 0.10 93 1010.4
20260507080536 57 6 2.0 6.0 0.03 0.13 0.10 94 1010.0
20260507075517 59 56 2.0 3.0 0.10 0.13 0.10 95 1009.5
20260507074517 60 349 1.0 3.0 0.10 0.13 0.10 96 1009.4
20260507073517 60 350 0.0 2.0 0.10 0.13 0.10 96 1009.1
20260507072517 60 2 0.0 2.0 0.10 0.13 0.10 95 1009.2
20260507071517 60 14 1.0 3.0 0.10 0.12 0.10 94 1009.6
20260507070517 61 333 1.0 2.0 0.07 0.10 0.07 93 1009.6
20260507065517 61 346 1.0 3.0 0.00 0.03 0.00 90 1009.4
20260507064518 61 317 1.0 3.0 0.00 0.03 0.00 89 1009.1
20260507063518 62 106 1.0 8.0 0.00 0.03 0.00 88 1009.1
20260507062539 62 253 0.0 3.0 0.00 0.03 0.00 92 1009.3
20260507061518 61 354 0.0 1.0 0.00 0.03 0.00 92 1009.0
20260507060519 61 21 0.0 2.0 0.00 0.03 0.00 92 1009.0
20260507055518 61 330 0.0 1.0 0.00 0.03 0.00 92 1009.1
20260507054539 61 58 0.0 1.0 0.00 0.03 0.00 92 1009.2
20260507053516 60 32 0.0 1.0 0.00 0.03 0.00 92 1009.4
20260507052516 60 47 0.0 1.0 0.00 0.03 0.00 92 1009.4
20260507051516 61 182 0.0 2.0 0.00 0.03 0.00 91 1009.3
20260507050516 61 22 0.0 1.0 0.00 0.03 0.00 92 1009.3
20260507045556 60 296 0.0 1.0 0.00 0.03 0.00 92 1009.6
20260507044517 60 1 0.0 1.0 0.00 0.03 0.00 92 1009.7
20260507043517 60 357 0.0 1.0 0.00 0.03 0.00 92 1009.7
20260507042518 60 212 0.0 1.0 0.00 0.03 0.00 92 1009.6
20260507041517 60 0.0 0.0 0.00 0.03 0.00 93 1009.7
20260507040517 60 3 0.0 1.0 0.00 0.03 0.00 92 1009.6
20260507035517 60 25 0.0 1.0 0.00 0.03 0.03 92 1009.6
20260507034517 60 50 0.0 1.0 0.00 0.03 0.03 92 1009.5
20260507033538 60 307 0.0 2.0 0.00 0.03 0.03 92 1009.5
20260507032538 60 272 0.0 1.0 0.00 0.03 0.03 92 1009.8
20260507031518 60 320 0.0 1.0 0.00 0.03 0.03 91 1009.6
20260507030518 60 310 0.0 1.0 0.00 0.03 0.03 91 1009.6
20260507025519 60 7 0.0 1.0 0.00 0.03 0.03 91 1009.7
20260507024518 61 345 0.0 2.0 0.00 0.03 0.03 91 1009.9
20260507023519 61 326 0.0 2.0 0.00 0.03 0.03 91 1009.9
20260507022516 61 24 0.0 1.0 0.00 0.03 0.03 91 1009.9
20260507021517 61 1 0.0 2.0 0.00 0.03 0.03 92 1010.1
20260507020516 60 326 0.0 1.0 0.00 0.03 0.03 92 1010.4
20260507015517 60 12 0.0 1.0 0.00 0.03 0.03 92 1010.4
20260507014537 60 37 0.0 2.0 0.00 0.03 0.03 92 1010.2
20260507013517 60 48 0.0 1.0 0.00 0.03 0.03 92 1010.3
20260507012518 60 23 0.0 2.0 0.00 0.03 0.03 92 1010.4
20260507011517 60 360 0.0 1.0 0.00 0.03 0.03 91 1010.5
20260507010539 60 36 0.0 1.0 0.00 0.03 0.03 91 1010.4
20260507005517 60 32 0.0 2.0 0.00 0.03 0.03 91 1010.3
20260507004518 60 32 0.0 1.0 0.00 0.03 0.03 91 1010.2
20260507003519 60 192 0.0 1.0 0.00 0.03 0.03 90 1010.3
20260507002518 61 229 0.0 2.0 0.00 0.03 0.03 90 1009.9
20260507001518 61 247 0.0 1.0 0.00 0.03 0.03 88 1009.9
20260507000519 62 221 0.0 1.0 0.00 0.03 0.03 87 1009.7
20260506235516 62 211 0.0 2.0 0.00 0.03 0.03 86 1009.8
20260506234515 63 217 0.0 1.0 0.00 0.03 0.03 85 1009.8
20260506233537 64 214 0.0 1.0 0.00 0.03 0.03 84 1009.8
20260506232516 65 197 0.0 2.0 0.00 0.03 0.03 83 1009.7
20260506231516 66 199 1.0 2.0 0.00 0.03 0.03 81 1009.7
20260506230516 67 207 0.0 1.0 0.00 0.03 0.03 80 1009.8
20260506225516 67 217 0.0 1.0 0.00 0.03 0.03 79 1009.8
20260506224517 67 208 0.0 1.0 0.00 0.03 0.03 78 1009.7
20260506223517 68 273 0.0 0.0 0.00 0.03 0.03 78 1009.6
20260506222537 68 0.0 0.0 0.00 0.03 0.03 77 1009.6
20260506221517 68 277 0.0 1.0 0.00 0.03 0.03 77 1009.6
20260506220538 68 259 0.0 1.0 0.00 0.03 0.03 77 1009.5
20260506215518 68 215 0.0 1.0 0.00 0.03 0.03 77 1009.6
20260506214538 68 226 0.0 1.0 0.00 0.03 0.03 77 1009.5
20260506213518 68 222 0.0 2.0 0.00 0.03 0.03 78 1009.4
20260506212538 67 208 0.0 2.0 0.00 0.03 0.03 78 1009.2
20260506211518 67 200 0.0 2.0 0.00 0.03 0.03 79 1009.3
20260506210515 66 212 0.0 3.0 0.00 0.03 0.03 80 1009.2
20260506204515 65 197 1.0 3.0 0.00 0.03 0.03 82 1009.1
20260506203516 66 199 1.0 5.0 0.00 0.03 0.03 80 1009.1
20260506202516 68 193 1.0 3.0 0.00 0.03 0.03 78 1009.2
20260506201516 68 210 0.0 3.0 0.00 0.03 0.03 77 1009.2
20260506200516 68 199 1.0 3.0 0.00 0.03 0.03 77 1009.3
20260506195517 67 210 1.0 4.0 0.00 0.03 0.03 77 1009.3
20260506194517 66 207 1.0 4.0 0.00 0.03 0.03 79 1009.4
20260506193518 65 203 2.0 5.0 0.00 0.03 0.03 82 1009.6
20260506192537 65 198 2.0 4.0 0.00 0.03 0.03 82 1010.1
20260506191538 64 189 2.0 4.0 0.00 0.03 0.03 83 1010.1
20260506190517 64 205 1.0 2.0 0.00 0.03 0.03 83 1010.2
20260506185536 63 205 1.0 2.0 0.00 0.03 0.03 84 1010.2
20260506184516 63 185 1.0 3.0 0.00 0.03 0.03 85 1010.2
20260506183557 62 138 1.0 3.0 0.00 0.03 0.03 86 1010.5
20260506182537 63 166 1.0 3.0 0.00 0.03 0.03 84 1010.6
20260506181536 65 127 1.0 5.0 0.02 0.03 0.03 82 1010.7
20260506180516 66 88 1.0 4.0 0.03 0.03 0.03 80 1010.7
20260506175516 66 103 1.0 2.0 0.03 0.03 0.03 79 1010.7
20260506174516 66 129 1.0 3.0 0.03 0.03 0.03 79 1010.7
20260506173516 65 162 1.0 3.0 0.03 0.03 0.03 81 1010.8
20260506172516 64 130 1.0 4.0 0.02 0.02 0.02 81 1011.0
20260506171516 64 205 1.0 3.0 0.00 0.00 0.00 80 1011.0
20260506170517 62 232 1.0 3.0 0.00 0.00 0.00 84 1011.3
20260506165518 62 198 1.0 2.0 0.00 0.00 0.00 87 1011.7
20260506164518 62 177 1.0 3.0 0.00 0.00 0.00 86 1011.9
20260506163518 62 202 1.0 3.0 0.00 0.00 0.00 85 1012.0
20260506162518 62 183 1.0 3.0 0.00 0.00 0.00 86 1012.2
20260506161518 62 154 1.0 4.0 0.00 0.00 0.00 85 1011.9
20260506160516 62 176 1.0 4.0 0.00 0.00 0.00 86 1012.1
20260506155519 62 176 1.0 3.0 0.00 0.00 0.00 86 1012.2
20260506154516 62 185 1.0 3.0 0.00 0.00 0.00 85 1012.2
20260506153517 63 186 1.0 3.0 0.00 0.00 0.00 83 1012.3
20260506152517 63 170 1.0 3.0 0.00 0.00 0.00 83 1012.3
20260506151516 63 191 1.0 4.0 0.00 0.00 0.00 83 1012.4
20260506150516 64 196 1.0 3.0 0.00 0.00 0.00 82 1012.3
20260506145517 64 181 1.0 3.0 0.00 0.00 0.00 81 1012.2
20260506144537 63 209 1.0 4.0 0.00 0.00 0.00 83 1012.4
20260506143518 64 174 1.0 4.0 0.00 0.00 0.00 82 1012.5
20260506142537 65 130 1.0 4.0 0.00 0.00 0.00 80 1012.6